When you browse on this site, cookies collect data to enhance your experience and personalize the content and advertising you see.
Visit our Privacy Policy to learn more. By continuing to use the site, you agree to this use of cookies and data.
  • In United Kingdom
  • List of Countries
  • For 7 days
  • Water Temperature
  • Weather Map
  • Weather Widgets
  • user-avatar
    Login

    Hourly Weather Bobki

    Today, 22 February, Saturday

    Time Temperature Precipitation Wind Pressure Humidity
    00:00 0°C° 0 mm 3 mps 754 mmHg 88%
    01:00 0°C° 0 mm 3 mps 754 mmHg 90%
    02:00 0°C° 0 mm 3 mps 754 mmHg 90%
    03:00 0°C° 0 mm 3 mps 754 mmHg 91%
    04:00 -1°C° 0 mm 3 mps 754 mmHg 91%
    05:00 0°C° 0 mm 3 mps 754 mmHg 89%
    06:00 -1°C° 0 mm 4 mps 754 mmHg 87%
    07:00 -1°C° 0 mm 4 mps 754 mmHg 86%
    08:00 0°C° 0 mm 5 mps 753 mmHg 78%
    09:00 +2°C° 0 mm 5 mps 753 mmHg 70%
    10:00 +3°C° 0 mm 6 mps 752 mmHg 62%
    11:00 +4°C° 0 mm 7 mps 752 mmHg 59%
    12:00 +4°C° 0 mm 7 mps 751 mmHg 56%
    13:00 +5°C° 0 mm 8 mps 750 mmHg 54%
    14:00 +5°C° 0 mm 8 mps 749 mmHg 55%
    15:00 +5°C° 0 mm 8 mps 748 mmHg 56%
    16:00 +5°C° 0 mm 7 mps 747 mmHg 57%
    17:00 +5°C° 0 mm 7 mps 747 mmHg 57%
    18:00 +5°C° 0 mm 7 mps 747 mmHg 57%
    19:00 +5°C° 0 mm 7 mps 746 mmHg 58%
    20:00 +5°C° 0 mm 8 mps 746 mmHg 57%
    21:00 +5°C° 0 mm 8 mps 745 mmHg 56%
    22:00 +6°C° 0 mm 8 mps 745 mmHg 55%
    23:00 +6°C° 0 mm 9 mps 745 mmHg 60%

    Tomorrow, 23 February, Sunday

    Time Temperature Precipitation Wind Pressure Humidity
    00:00 +6°C° 0 mm 9 mps 745 mmHg 65%
    01:00 +6°C° 0 mm 9 mps 745 mmHg 69%
    02:00 +5°C° 0.3 mm 9 mps 744 mmHg 73%
    03:00 +5°C° 0.3 mm 9 mps 744 mmHg 77%
    04:00 +5°C° 0.3 mm 9 mps 744 mmHg 81%
    05:00 +4°C° 0.4 mm 8 mps 744 mmHg 77%
    06:00 +4°C° 0.4 mm 8 mps 745 mmHg 73%
    07:00 +2°C° 0.4 mm 8 mps 745 mmHg 68%
    08:00 +4°C° 0 mm 8 mps 745 mmHg 68%
    09:00 +4°C° 0 mm 8 mps 745 mmHg 68%
    10:00 +4°C° 0 mm 8 mps 745 mmHg 68%
    11:00 +4°C° 0.1 mm 8 mps 744 mmHg 72%
    12:00 +2°C° 0.1 mm 8 mps 744 mmHg 77%
    13:00 +3°C° 0.1 mm 7 mps 744 mmHg 81%
    14:00 +3°C° 0.3 mm 7 mps 743 mmHg 81%
    15:00 +3°C° 0.3 mm 6 mps 741 mmHg 80%
    16:00 +3°C° 0.3 mm 5 mps 740 mmHg 80%
    17:00 +3°C° 1 mm 4 mps 739 mmHg 85%
    18:00 +3°C° 1 mm 3 mps 738 mmHg 90%
    19:00 +5°C° 1 mm 1 mps 736 mmHg 94%
    20:00 +3°C° 3.2 mm 2 mps 735 mmHg 95%
    21:00 +2°C° 3.2 mm 3 mps 733 mmHg 96%
    22:00 0°C° 3.2 mm 4 mps 731 mmHg 96%
    23:00 0°C° 1.3 mm 5 mps 733 mmHg 96%

    Day after tomorrow, 24 February, Monday

    Time Temperature Precipitation Wind Pressure Humidity
    00:00 -1°C° 1.3 mm 6 mps 735 mmHg 96%
    01:00 -1°C° 1.3 mm 8 mps 737 mmHg 95%
    02:00 -1°C° 0.3 mm 8 mps 738 mmHg 90%
    03:00 -1°C° 0.3 mm 8 mps 740 mmHg 84%
    04:00 -1°C° 0.3 mm 9 mps 741 mmHg 79%
    05:00 -1°C° 0 mm 9 mps 743 mmHg 80%
    06:00 -1°C° 0 mm 9 mps 744 mmHg 81%
    07:00 -1°C° 0 mm 9 mps 745 mmHg 82%
    08:00 -1°C° 0 mm 9 mps 745 mmHg 82%
    09:00 0°C° 0 mm 8 mps 746 mmHg 82%
    10:00 0°C° 0 mm 8 mps 747 mmHg 81%
    11:00 +1°C° 0.1 mm 8 mps 747 mmHg 79%
    12:00 +1°C° 0.1 mm 8 mps 748 mmHg 77%
    13:00 +2°C° 0.1 mm 7 mps 748 mmHg 75%
    14:00 +2°C° 0 mm 7 mps 748 mmHg 74%
    15:00 +2°C° 0 mm 7 mps 748 mmHg 73%
    16:00 +2°C° 0 mm 6 mps 748 mmHg 72%
    17:00 +2°C° 0 mm 5 mps 747 mmHg 72%
    18:00 +1°C° 0 mm 4 mps 747 mmHg 72%
    19:00 +2°C° 0 mm 3 mps 747 mmHg 72%
    20:00 +2°C° 0 mm 3 mps 746 mmHg 75%
    21:00 +2°C° 0 mm 3 mps 745 mmHg 77%
    22:00 +1°C° 0 mm 3 mps 745 mmHg 79%
    23:00 +1°C° 0 mm 4 mps 744 mmHg 78%

    25 February, Tuesday

    Time Temperature Precipitation Wind Pressure Humidity
    00:00 +1°C° 0 mm 5 mps 743 mmHg 78%
    01:00 +1°C° 0 mm 6 mps 742 mmHg 77%
    02:00 +2°C° 0.3 mm 7 mps 741 mmHg 78%
    03:00 +2°C° 0.3 mm 7 mps 740 mmHg 79%
    04:00 +3°C° 0.3 mm 7 mps 738 mmHg 80%
    05:00 +3°C° 0.1 mm 7 mps 738 mmHg 80%
    06:00 +4°C° 0.1 mm 7 mps 738 mmHg 81%
    07:00 +5°C° 0.1 mm 8 mps 737 mmHg 81%
    08:00 +6°C° 0 mm 7 mps 737 mmHg 81%
    09:00 +6°C° 0 mm 7 mps 737 mmHg 80%
    10:00 +8°C° 0 mm 7 mps 737 mmHg 80%
    11:00 +8°C° 0.1 mm 7 mps 737 mmHg 78%
    12:00 +8°C° 0.1 mm 7 mps 736 mmHg 76%
    13:00 +9°C° 0.1 mm 7 mps 736 mmHg 74%
    14:00 +8°C° 0.3 mm 7 mps 736 mmHg 75%
    15:00 +8°C° 0.3 mm 6 mps 735 mmHg 76%
    16:00 +8°C° 0.3 mm 6 mps 735 mmHg 77%
    17:00 +8°C° 0.3 mm 6 mps 735 mmHg 78%
    18:00 +7°C° 0.3 mm 6 mps 735 mmHg 80%
    19:00 +7°C° 0.3 mm 5 mps 735 mmHg 81%
    20:00 +6°C° 1.1 mm 5 mps 735 mmHg 81%
    21:00 +6°C° 1.1 mm 4 mps 735 mmHg 81%
    22:00 +5°C° 1.1 mm 3 mps 735 mmHg 80%
    23:00 +5°C° 0 mm 3 mps 735 mmHg 80%

    26 February, Wednesday

    Time Temperature Precipitation Wind Pressure Humidity
    00:00 +4°C° 0 mm 3 mps 734 mmHg 80%
    01:00 +4°C° 0 mm 3 mps 734 mmHg 80%
    02:00 +4°C° 0 mm 3 mps 734 mmHg 79%
    03:00 +3°C° 0 mm 3 mps 734 mmHg 78%
    04:00 +3°C° 0 mm 3 mps 734 mmHg 76%
    05:00 +3°C° 0 mm 3 mps 733 mmHg 77%
    06:00 +3°C° 0 mm 2 mps 733 mmHg 77%
    07:00 +3°C° 0 mm 2 mps 733 mmHg 78%
    08:00 +4°C° 0 mm 2 mps 733 mmHg 72%
    09:00 +4°C° 0 mm 3 mps 733 mmHg 66%
    10:00 +5°C° 0 mm 3 mps 733 mmHg 61%
    11:00 +7°C° 0 mm 3 mps 733 mmHg 58%
    12:00 +7°C° 0 mm 3 mps 733 mmHg 56%
    13:00 +8°C° 0 mm 2 mps 733 mmHg 54%
    14:00 +8°C° 0 mm 2 mps 733 mmHg 57%
    15:00 +7°C° 0 mm 2 mps 732 mmHg 59%
    16:00 +8°C° 0 mm 1 mps 732 mmHg 62%
    17:00 +7°C° 0.1 mm 1 mps 733 mmHg 66%
    18:00 +6°C° 0.1 mm 2 mps 733 mmHg 70%
    19:00 +5°C° 0.1 mm 2 mps 733 mmHg 74%
    20:00 +5°C° 0.1 mm 2 mps 733 mmHg 77%
    21:00 +5°C° 0.1 mm 1 mps 734 mmHg 80%
    22:00 +5°C° 0.1 mm 1 mps 734 mmHg 83%
    23:00 +5°C° 0.1 mm 1 mps 734 mmHg 85%

    27 February, Thursday

    Time Temperature Precipitation Wind Pressure Humidity
    00:00 +5°C° 0.1 mm 1 mps 734 mmHg 87%
    01:00 +5°C° 0.1 mm 1 mps 735 mmHg 89%
    02:00 +4°C° 0.3 mm 2 mps 735 mmHg 90%
    03:00 +2°C° 0.3 mm 3 mps 735 mmHg 92%
    04:00 +2°C° 0.3 mm 3 mps 736 mmHg 93%
    05:00 +1°C° 0.5 mm 4 mps 736 mmHg 93%
    06:00 0°C° 0.5 mm 5 mps 737 mmHg 93%
    07:00 -1°C° 0.5 mm 6 mps 737 mmHg 93%
    08:00 -1°C° 0.1 mm 6 mps 738 mmHg 88%
    09:00 -1°C° 0.1 mm 6 mps 739 mmHg 82%
    10:00 -1°C° 0.1 mm 6 mps 739 mmHg 77%
    11:00 -1°C° 0 mm 6 mps 740 mmHg 76%
    12:00 -1°C° 0 mm 6 mps 740 mmHg 76%
    13:00 -1°C° 0 mm 6 mps 740 mmHg 75%
    14:00 -1°C° 0 mm 6 mps 741 mmHg 75%
    15:00 +1°C° 0 mm 6 mps 741 mmHg 75%
    16:00 +1°C° 0 mm 6 mps 741 mmHg 74%
    17:00 0°C° 0 mm 5 mps 742 mmHg 76%
    18:00 -1°C° 0 mm 4 mps 742 mmHg 77%
    19:00 0°C° 0 mm 3 mps 743 mmHg 79%
    20:00 -1°C° 0 mm 3 mps 743 mmHg 81%
    21:00 -1°C° 0 mm 3 mps 743 mmHg 82%
    22:00 -1°C° 0 mm 3 mps 743 mmHg 84%
    23:00 -1°C° 0 mm 2 mps 743 mmHg 85%
    Show more